GW3995 Weather Reports


Display with metric or nautical units.
time (UTC)temp
F
wind
direction
speed
MPH
gust
MPH
rain 1hr
in
rain 24hr
in
rain mn
in
humidity
%
barometer
mb
20260505064417 59 43 0.0 1.0 0.00 0.00 0.00 76 1015.5
20260505063917 59 89 0.0 0.0 0.00 0.00 0.00 76 1015.6
20260505063417 59 4 0.0 1.0 0.00 0.00 0.00 76 1015.5
20260505062917 59 332 1.0 2.0 0.00 0.00 0.00 75 1015.5
20260505062417 59 0 0.0 0.0 0.00 0.00 0.00 75 1015.4
20260505061917 59 39 0.0 1.0 0.00 0.00 0.00 75 1015.4
20260505061417 59 35 0.0 0.0 0.00 0.00 0.00 75 1015.4
20260505060918 59 48 0.0 0.0 0.00 0.00 0.00 75 1015.5
20260505060417 59 15 0.0 2.0 0.00 0.00 0.00 75 1015.5
20260505055918 59 27 0.0 1.0 0.00 0.00 0.00 75 1015.6
20260505055418 60 0 0.0 0.0 0.00 0.00 0.00 74 1015.6
20260505054918 60 38 1.0 2.0 0.00 0.00 0.00 73 1015.5
20260505054418 60 48 1.0 1.0 0.00 0.00 0.00 73 1015.6
20260505053919 60 22 1.0 1.0 0.00 0.00 0.00 73 1015.6
20260505053417 60 18 0.0 0.0 0.00 0.00 0.00 73 1015.6
20260505052917 60 329 0.0 1.0 0.00 0.00 0.00 72 1015.6
20260505052417 60 270 1.0 2.0 0.00 0.00 0.00 72 1015.7
20260505051917 60 327 0.0 0.0 0.00 0.00 0.00 71 1015.7
20260505051418 61 0 0.0 0.0 0.00 0.00 0.00 72 1015.8
20260505050917 61 284 0.0 0.0 0.00 0.00 0.00 72 1015.8
20260505050417 61 281 1.0 2.0 0.00 0.00 0.00 72 1015.8
20260505041418 62 338 0.0 1.0 0.00 0.00 0.00 70 1015.8
20260505040918 62 43 0.0 2.0 0.00 0.00 0.00 70 1015.7
20260505040417 62 56 0.0 0.0 0.00 0.00 0.00 70 1015.7
20260505035917 62 0 0.0 0.0 0.00 0.00 0.00 71 1015.7
20260505035417 62 0 0.0 0.0 0.00 0.00 0.00 71 1015.8
20260505034918 62 0 0.0 0.0 0.00 0.00 0.00 70 1015.8
20260505034417 62 313 0.0 2.0 0.00 0.00 0.00 70 1015.7
20260505033919 62 0 0.0 0.0 0.00 0.00 0.00 71 1015.7
20260505033417 63 0 0.0 0.0 0.00 0.00 0.00 69 1015.7
20260505032919 63 0 0.0 0.0 0.00 0.00 0.00 68 1015.7
20260505032417 63 0 0.0 0.0 0.00 0.00 0.00 68 1015.7
20260505031917 63 284 1.0 2.0 0.00 0.00 0.00 67 1015.7
20260505031417 63 0 2.0 2.0 0.00 0.00 0.00 67 1015.7
20260505030918 63 32 0.0 0.0 0.00 0.00 0.00 67 1015.6
20260505030418 63 0 0.0 0.0 0.00 0.00 0.00 67 1015.7
20260505025917 64 0 0.0 0.0 0.00 0.00 0.00 66 1015.7
20260505025418 64 99 0.0 0.0 0.00 0.00 0.00 66 1015.7
20260505024917 64 0 0.0 0.0 0.00 0.00 0.00 65 1015.7
20260505024417 64 0 0.0 0.0 0.00 0.00 0.00 64 1015.7
20260505023917 64 41 1.0 2.0 0.00 0.00 0.00 63 1015.6
20260505023417 64 356 1.0 1.0 0.00 0.00 0.00 63 1015.6
20260505022917 64 16 0.0 0.0 0.00 0.00 0.00 63 1015.6
20260505022417 64 291 1.0 2.0 0.00 0.00 0.00 60 1015.5
20260505021917 64 23 0.0 0.0 0.00 0.00 0.00 62 1015.5
20260505021418 64 34 0.0 1.0 0.00 0.00 0.00 62 1015.4
20260505020917 64 281 0.0 2.0 0.00 0.00 0.00 60 1015.4
20260505020417 64 287 0.0 1.0 0.00 0.00 0.00 61 1015.3
20260505015917 64 24 1.0 2.0 0.00 0.00 0.00 60 1015.3
20260505015418 64 0 0.0 0.0 0.00 0.00 0.00 59 1015.3
20260505014917 65 0 0.0 0.0 0.00 0.00 0.00 60 1015.3
20260505014417 65 18 0.0 0.0 0.00 0.00 0.00 59 1015.2
20260505013918 66 0 0.0 0.0 0.00 0.00 0.00 59 1015.1
20260505013417 66 0 0.0 0.0 0.00 0.00 0.00 52 1014.9
20260505012917 66 7 0.0 1.0 0.00 0.00 0.00 50 1014.8
20260505012417 66 15 0.0 0.0 0.00 0.00 0.00 52 1014.8
20260505011917 66 0 0.0 0.0 0.00 0.00 0.00 52 1014.7
20260505011417 66 61 0.0 1.0 0.00 0.00 0.00 51 1014.7
20260505010918 66 0 0.0 0.0 0.00 0.00 0.00 52 1014.5
20260505010417 66 41 0.0 0.0 0.00 0.00 0.00 54 1014.5
20260505005917 67 0 0.0 0.0 0.00 0.00 0.00 52 1014.5
20260505005417 67 0 0.0 0.0 0.00 0.00 0.00 52 1014.4
20260505004918 67 0 0.0 0.0 0.00 0.00 0.00 52 1014.3
20260505004417 67 37 0.0 1.0 0.00 0.00 0.00 54 1014.2
20260505003918 67 0 0.0 0.0 0.00 0.00 0.00 54 1014.2
20260505003417 68 0 0.0 0.0 0.00 0.00 0.00 52 1014.2
20260505002917 68 0 0.0 0.0 0.00 0.00 0.00 53 1014.0
20260505002417 69 51 0.0 1.0 0.00 0.00 0.00 52 1013.9
20260505001917 69 0 0.0 0.0 0.00 0.00 0.00 52 1013.9
20260505001417 69 0 0.0 0.0 0.00 0.00 0.00 48 1013.9
20260505000917 70 0 0.0 0.0 0.00 0.00 0.00 49 1013.9
20260505000417 70 0 0.0 0.0 0.00 0.00 0.00 48 1013.9
20260504235917 70 0 0.0 0.0 0.00 0.00 0.00 49 1013.8
20260504235418 71 51 0.0 1.0 0.00 0.00 0.00 48 1013.7
20260504234917 71 45 0.0 1.0 0.00 0.00 0.00 48 1013.7
20260504234417 71 258 0.0 1.0 0.00 0.00 0.00 47 1013.7
20260504233918 72 57 0.0 0.0 0.00 0.00 0.00 49 1013.6
20260504233417 72 277 0.0 2.0 0.00 0.00 0.00 47 1013.5
20260504232917 73 0 0.0 0.0 0.00 0.00 0.00 47 1013.5
20260504232417 73 35 1.0 2.0 0.00 0.00 0.00 46 1013.4
20260504231917 74 0 0.0 0.0 0.00 0.00 0.00 43 1013.4
20260504231418 75 0 0.0 0.0 0.00 0.00 0.00 41 1013.3
20260504230917 75 54 0.0 2.0 0.00 0.00 0.00 38 1013.3
20260504230417 76 43 1.0 2.0 0.00 0.00 0.00 36 1013.2
20260504225917 77 63 0.0 2.0 0.00 0.00 0.00 37 1013.2
20260504225417 77 153 0.0 2.0 0.00 0.00 0.00 34 1013.2
20260504224917 77 256 3.0 5.0 0.00 0.00 0.00 29 1013.2
20260504224417 77 56 0.0 2.0 0.00 0.00 0.00 36 1013.3
20260504223917 77 262 4.0 6.0 0.00 0.00 0.00 33 1013.2
20260504223417 77 86 0.0 1.0 0.00 0.00 0.00 38 1013.3
20260504222917 78 254 1.0 2.0 0.00 0.00 0.00 32 1013.2
20260504222417 78 248 2.0 4.0 0.00 0.00 0.00 29 1013.2
20260504221918 79 266 4.0 6.0 0.00 0.00 0.00 29 1013.2
20260504221417 79 250 2.0 5.0 0.00 0.00 0.00 29 1013.2
20260504220917 80 263 2.0 3.0 0.00 0.00 0.00 29 1013.3
20260504220419 80 256 2.0 4.0 0.00 0.00 0.00 28 1013.2
20260504215917 80 241 1.0 6.0 0.00 0.00 0.00 29 1013.2
20260504215418 81 230 3.0 5.0 0.00 0.00 0.00 28 1013.2
20260504214917 81 252 0.0 2.0 0.00 0.00 0.00 29 1013.3
20260504214417 80 255 2.0 4.0 0.00 0.00 0.00 30 1013.3
20260504213917 80 233 2.0 4.0 0.00 0.00 0.00 29 1013.3
20260504213418 81 260 4.0 6.0 0.00 0.00 0.00 28 1013.3
20260504212917 81 71 1.0 3.0 0.00 0.00 0.00 32 1013.4
20260504212417 81 218 1.0 3.0 0.00 0.00 0.00 29 1013.4
20260504211917 81 255 2.0 4.0 0.00 0.00 0.00 30 1013.5
20260504211417 81 238 1.0 4.0 0.00 0.00 0.00 33 1013.4
20260504210917 81 199 1.0 3.0 0.00 0.00 0.00 31 1013.4
20260504210417 81 244 2.0 4.0 0.00 0.00 0.00 31 1013.5
20260504205918 81 272 2.0 4.0 0.00 0.00 0.00 29 1013.4
20260504205417 81 243 1.0 3.0 0.00 0.00 0.00 29 1013.5
20260504204917 81 235 2.0 8.0 0.00 0.00 0.00 31 1013.6
20260504204417 80 257 0.0 4.0 0.00 0.00 0.00 35 1013.6
20260504203918 80 79 2.0 3.0 0.00 0.00 0.00 32 1013.5
20260504203417 80 228 2.0 3.0 0.00 0.00 0.00 31 1013.6
20260504202917 80 221 3.0 4.0 0.00 0.00 0.00 31 1013.7
20260504202417 81 92 1.0 2.0 0.00 0.00 0.00 32 1013.7
20260504201917 81 72 3.0 5.0 0.00 0.00 0.00 31 1013.7
20260504201418 81 47 3.0 4.0 0.00 0.00 0.00 33 1013.7
20260504200918 81 48 2.0 2.0 0.00 0.00 0.00 33 1013.9
20260504200417 80 50 1.0 2.0 0.00 0.00 0.00 32 1013.9
20260504195919 80 220 2.0 4.0 0.00 0.00 0.00 31 1013.9
20260504195419 80 242 3.0 4.0 0.00 0.00 0.00 32 1013.9
20260504194917 80 244 2.0 6.0 0.00 0.00 0.00 32 1014.0
20260504194417 81 219 2.0 2.0 0.00 0.00 0.00 31 1014.2
20260504193918 81 264 3.0 5.0 0.00 0.00 0.00 30 1014.2
20260504193417 80 251 2.0 6.0 0.00 0.00 0.00 31 1014.2
20260504192918 80 235 1.0 5.0 0.00 0.00 0.00 32 1014.2
20260504192420 80 156 2.0 2.0 0.00 0.00 0.00 32 1014.2
20260504191917 80 220 2.0 3.0 0.00 0.00 0.00 32 1014.3
20260504191418 79 46 2.0 2.0 0.00 0.00 0.00 33 1014.4
20260504190917 79 169 3.0 5.0 0.00 0.00 0.00 31 1014.5
20260504190417 79 46 1.0 2.0 0.00 0.00 0.00 32 1014.6
20260504185917 79 192 2.0 4.0 0.00 0.00 0.00 32 1014.7
20260504185417 79 158 2.0 5.0 0.00 0.00 0.00 31 1014.7
20260504184920 79 227 2.0 4.0 0.00 0.00 0.00 31 1014.7
20260504184417 79 218 3.0 5.0 0.00 0.00 0.00 33 1015.0
20260504183917 78 118 2.0 4.0 0.00 0.00 0.00 33 1015.1
20260504183418 78 37 2.0 3.0 0.00 0.00 0.00 32 1015.0
20260504182917 78 198 2.0 4.0 0.00 0.00 0.00 35 1014.9
20260504182418 78 140 1.0 2.0 0.00 0.00 0.00 32 1015.0
20260504181917 78 203 2.0 3.0 0.00 0.00 0.00 31 1015.0
20260504181419 77 135 1.0 3.0 0.00 0.00 0.00 33 1015.1
20260504180917 77 111 0.0 2.0 0.00 0.00 0.00 36 1015.2
20260504180417 77 228 3.0 5.0 0.00 0.00 0.00 32 1015.2
20260504175918 77 190 2.0 5.0 0.00 0.00 0.00 33 1015.1
20260504175417 77 130 2.0 4.0 0.00 0.00 0.00 37 1015.2
20260504174917 77 53 2.0 3.0 0.00 0.00 0.00 34 1015.3
20260504174417 76 53 0.0 2.0 0.00 0.00 0.00 37 1015.3
20260504173917 75 83 0.0 2.0 0.00 0.00 0.00 37 1015.3
20260504173418 75 198 1.0 3.0 0.00 0.00 0.00 37 1015.5
20260504172918 75 183 1.0 4.0 0.00 0.00 0.00 38 1015.6
20260504172417 74 69 2.0 4.0 0.00 0.00 0.00 43 1015.7
20260504171917 74 78 2.0 4.0 0.00 0.00 0.00 41 1015.8
20260504171417 74 266 2.0 4.0 0.00 0.00 0.00 42 1016.0
20260504170919 74 219 2.0 3.0 0.00 0.00 0.00 42 1016.1
20260504170417 73 246 2.0 3.0 0.00 0.00 0.00 38 1016.1
20260504160418 72 258 4.0 7.0 0.00 0.00 0.00 42 1016.9
20260504150917 70 0 0.0 0.0 0.00 0.00 0.00 50 1017.0
20260504150418 69 0 0.0 0.0 0.00 0.00 0.00 52 1017.1
20260504140917 65 0 0.0 0.0 0.00 0.00 0.00 61 1017.3
20260504140417 64 268 1.0 3.0 0.00 0.00 0.00 61 1017.2
20260504130417 56 243 1.0 2.0 0.00 0.00 0.00 78 1017.5
20260504110417 43 0 0.0 0.0 0.00 0.00 0.00 95 1017.6
20260504100418 43 0 0.0 0.0 0.00 0.00 0.00 94 1017.4
20260504081922 45 0 0.0 0.0 0.00 0.00 0.00 89 1017.4
20260504081417 45 0 0.0 0.0 0.00 0.00 0.00 89 1017.4
20260504080918 45 0 0.0 0.0 0.00 0.00 0.00 89 1017.4
20260504080417 45 0 0.0 0.0 0.00 0.00 0.00 89 1017.4